DW8048 Weather Reports


Display with metric or nautical units.
time (UTC)temp
F
wind
direction
speed
MPH
gust
MPH
rain 1hr
in
rain 24hr
in
rain mn
in
humidity
%
barometer
mb
20201020175011 95 162 0.0 2.0 0.00 0.00 0.00 51 1014.0
20201020174523 95 201 0.0 1.0 0.00 0.00 0.00 52 1014.1
20201020174009 94 186 0.0 4.0 0.00 0.00 0.00 53 1014.2
20201020173513 94 150 0.0 4.0 0.00 0.00 0.00 53 1014.3
20201020173042 93 266 0.0 2.0 0.00 0.00 0.00 55 1014.4
20201020172509 93 146 0.0 2.0 0.00 0.00 0.00 56 1014.4
20201020172023 93 210 0.0 2.0 0.00 0.00 0.00 57 1014.5
20201020171525 93 241 0.0 1.0 0.00 0.00 0.00 58 1014.6
20201020171007 92 116 0.0 1.0 0.00 0.00 0.00 58 1014.7
20201020170509 91 117 0.0 1.0 0.00 0.00 0.00 58 1014.7
20201020170141 91 116 0.0 2.0 0.00 0.00 0.00 58 1014.8
20201020165608 91 125 0.0 2.0 0.00 0.00 0.00 60 1014.8
20201020165059 90 45 0.0 1.0 0.00 0.00 0.00 61 1014.8
20201020164653 90 268 0.0 1.0 0.00 0.00 0.00 62 1014.9
20201020164101 90 130 0.0 0.0 0.00 0.00 0.00 62 1015.0
20201020163601 89 130 0.0 1.0 0.00 0.00 0.00 63 1014.9
20201020163310 88 147 0.0 1.0 0.00 0.00 0.00 67 1015.0
20201020162556 88 147 0.0 1.0 0.00 0.00 0.00 63 1015.0
20201020162056 88 239 0.0 1.0 0.00 0.00 0.00 67 1015.0
20201020161634 88 241 0.0 0.0 0.00 0.00 0.00 65 1015.1
20201020161056 88 168 0.0 1.0 0.00 0.00 0.00 65 1015.0
20201020160554 88 168 0.0 1.0 0.00 0.00 0.00 66 1015.0
20201020160143 88 189 0.0 0.0 0.00 0.00 0.00 69 1015.0
20201020155559 86 189 0.0 0.0 0.00 0.00 0.00 72 1015.0
20201020155048 85 189 0.0 0.0 0.00 0.00 0.00 72 1015.1
20201020154654 84 237 0.0 0.0 0.00 0.00 0.00 76 1015.1
20201020154102 82 238 0.0 0.0 0.00 0.00 0.00 80 1015.0
20201020153545 80 238 0.0 1.0 0.00 0.00 0.00 84 1015.1
20201020153201 78 238 0.0 0.0 0.00 0.00 0.00 87 1015.1
20201020152559 78 238 0.0 0.0 0.00 0.00 0.00 86 1015.1
20201020152109 77 238 0.0 0.0 0.00 0.00 0.00 86 1015.2
20201020151651 77 238 0.0 0.0 0.00 0.00 0.00 87 1015.1
20201020151107 77 238 0.0 0.0 0.00 0.00 0.00 86 1015.1
20201020150540 77 238 0.0 0.0 0.00 0.00 0.00 86 1015.1
20201020150227 77 238 0.0 4.0 0.00 0.00 0.00 87 1015.1
20201020145541 77 184 0.0 4.0 0.00 0.00 0.00 87 1015.1
20201020145041 77 243 0.0 1.0 0.00 0.00 0.00 90 1015.2
20201020144610 76 112 0.0 1.0 0.00 0.00 0.00 90 1015.1
20201020144036 76 112 0.0 1.0 0.00 0.00 0.00 90 1015.1
20201020143537 76 70 0.0 1.0 0.00 0.00 0.00 90 1015.1
20201020142534 76 121 0.0 1.0 0.00 0.00 0.00 91 1015.1
20201020142032 75 122 0.0 0.0 0.00 0.00 0.00 92 1015.0
20201020141640 75 122 0.0 0.0 0.00 0.00 0.00 93 1015.0
20201020141030 75 122 0.0 0.0 0.00 0.00 0.00 93 1014.9
20201020140529 75 317 0.0 0.0 0.00 0.00 0.00 93 1014.9
20201020140121 75 316 0.0 0.0 0.00 0.00 0.00 93 1014.9
20201020135529 74 305 0.0 0.0 0.00 0.00 0.00 94 1014.9
20201020135031 74 305 0.0 0.0 0.00 0.00 0.00 94 1014.8
20201020134612 74 305 0.0 0.0 0.00 0.00 0.00 94 1014.8
20201020134045 74 305 0.0 0.0 0.00 0.00 0.00 95 1014.7
20201020133533 74 305 0.0 0.0 0.00 0.00 0.00 95 1014.6
20201020133109 74 305 0.0 0.0 0.00 0.00 0.00 96 1014.6
20201020132554 74 305 0.0 0.0 0.00 0.00 0.00 96 1014.6
20201020132045 73 305 0.0 0.0 0.00 0.00 0.00 96 1014.6
20201020131610 73 305 0.0 0.0 0.00 0.00 0.00 96 1014.5
20201020131028 73 305 0.0 0.0 0.00 0.00 0.00 96 1014.5
20201020130534 73 305 0.0 0.0 0.00 0.00 0.00 96 1014.5
20201020130038 73 305 0.0 0.0 0.00 0.00 0.00 96 1014.5
20201020125613 73 305 0.0 0.0 0.00 0.00 0.00 96 1014.5
20201020125031 73 305 0.0 0.0 0.00 0.00 0.00 96 1014.5
20201020124601 73 305 0.0 0.0 0.00 0.00 0.00 96 1014.4
20201020124111 73 305 0.0 0.0 0.00 0.00 0.00 96 1014.4
20201020123527 73 305 0.0 0.0 0.00 0.00 0.00 96 1014.3
20201020123036 73 305 0.0 0.0 0.00 0.00 0.00 96 1014.3
20201020122530 72 305 0.0 0.0 0.00 0.00 0.00 95 1014.4
20201020122022 72 305 0.0 0.0 0.00 0.00 0.00 95 1014.4
20201020121533 73 305 0.0 0.0 0.00 0.00 0.00 95 1014.4
20201020121030 73 305 0.0 0.0 0.00 0.00 0.00 95 1014.3
20201020120532 73 305 0.0 0.0 0.00 0.00 0.00 95 1014.3
20201020120031 73 305 0.0 0.0 0.00 0.00 0.00 95 1014.2
20201020115526 73 305 0.0 0.0 0.00 0.00 0.00 95 1014.2
20201020115021 73 305 0.0 0.0 0.00 0.00 0.00 94 1014.2
20201020114538 73 305 0.0 0.0 0.00 0.00 0.00 94 1014.2
20201020114017 73 305 0.0 0.0 0.00 0.00 0.00 95 1014.1
20201020113519 73 305 0.0 0.0 0.00 0.00 0.00 95 1014.1
20201020113029 74 305 0.0 0.0 0.00 0.00 0.00 95 1014.0
20201020112517 74 305 0.0 0.0 0.00 0.00 0.00 95 1014.0
20201020112015 74 291 0.0 0.0 0.00 0.00 0.00 95 1013.9
20201020111537 74 291 0.0 0.0 0.00 0.00 0.00 95 1013.9
20201020111015 74 291 0.0 0.0 0.00 0.00 0.00 95 1013.9
20201020110518 74 291 0.0 0.0 0.00 0.00 0.00 95 1013.9
20201020110051 74 291 0.0 0.0 0.00 0.00 0.00 94 1013.7
20201020105512 74 291 0.0 0.0 0.00 0.00 0.00 94 1013.7
20201020105019 74 291 0.0 0.0 0.00 0.00 0.00 94 1013.7
20201020104520 74 291 0.0 0.0 0.00 0.00 0.00 94 1013.6
20201020104038 74 291 0.0 0.0 0.00 0.00 0.00 94 1013.6
20201020103529 74 291 0.0 0.0 0.00 0.00 0.00 94 1013.5
20201020103025 74 291 0.0 0.0 0.00 0.00 0.00 94 1013.5
20201020102533 74 291 0.0 0.0 0.00 0.00 0.00 94 1013.5
20201020102010 74 291 0.0 0.0 0.00 0.00 0.00 94 1013.4
20201020101536 74 291 0.0 0.0 0.00 0.00 0.00 94 1013.4
20201020101011 74 291 0.0 0.0 0.00 0.00 0.00 94 1013.4
20201020100535 74 291 0.0 0.0 0.00 0.00 0.00 94 1013.4
20201020100041 74 291 0.0 0.0 0.00 0.00 0.00 94 1013.4
20201020095519 74 291 0.0 0.0 0.00 0.00 0.00 94 1013.4
20201020095010 74 291 0.0 0.0 0.00 0.00 0.00 93 1013.4
20201020094518 74 291 0.0 0.0 0.00 0.00 0.00 93 1013.4
20201020094010 74 291 0.0 0.0 0.00 0.00 0.00 93 1013.3
20201020093511 74 291 0.0 0.0 0.00 0.00 0.00 93 1013.3
20201020093057 74 291 0.0 0.0 0.00 0.00 0.00 93 1013.3
20201020092514 74 291 0.0 0.0 0.00 0.00 0.00 93 1013.3
20201020092014 74 291 0.0 0.0 0.00 0.00 0.00 93 1013.3
20201020091518 74 274 0.0 0.0 0.00 0.00 0.00 93 1013.3
20201020091011 74 274 0.0 0.0 0.00 0.00 0.00 93 1013.3
20201020090510 74 274 0.0 0.0 0.00 0.00 0.00 93 1013.4
20201020090032 74 274 0.0 0.0 0.00 0.00 0.00 93 1013.5
20201020085525 75 274 0.0 0.0 0.00 0.00 0.00 93 1013.4
20201020085015 75 274 0.0 0.0 0.00 0.00 0.00 93 1013.4
20201020084518 75 274 0.0 0.0 0.00 0.00 0.00 93 1013.5
20201020084018 75 274 0.0 0.0 0.00 0.00 0.00 93 1013.5
20201020083509 75 274 0.0 1.0 0.00 0.00 0.00 94 1013.5
20201020083033 74 126 0.0 0.0 0.00 0.00 0.00 94 1013.6
20201020082505 74 126 0.0 0.0 0.00 0.00 0.00 94 1013.6
20201020082016 74 126 0.0 0.0 0.00 0.00 0.00 94 1013.6
20201020081519 74 126 0.0 0.0 0.00 0.00 0.00 94 1013.6
20201020081014 74 126 0.0 0.0 0.00 0.00 0.00 94 1013.5
20201020080504 74 126 0.0 0.0 0.00 0.00 0.00 94 1013.5
20201020080024 74 126 0.0 0.0 0.00 0.00 0.00 94 1013.4
20201020075508 74 126 0.0 0.0 0.00 0.00 0.00 94 1013.4
20201020075019 74 121 0.0 1.0 0.00 0.00 0.00 93 1013.4
20201020074521 74 121 0.0 1.0 0.00 0.00 0.00 93 1013.4
20201020074004 74 128 0.0 0.0 0.00 0.00 0.00 93 1013.4
20201020073506 75 128 0.0 0.0 0.00 0.00 0.00 93 1013.5
20201020073007 75 128 0.0 0.0 0.00 0.00 0.00 93 1013.5
20201020072115 75 128 0.0 1.0 0.00 0.00 0.00 93 1013.5
20201020071647 75 128 0.0 1.0 0.00 0.00 0.00 93 1013.5
20201020071109 75 128 0.0 0.0 0.00 0.00 0.00 93 1013.5
20201020070605 75 127 0.0 0.0 0.00 0.00 0.00 93 1013.6
20201020070321 75 132 0.0 0.0 0.00 0.00 0.00 93 1013.6
20201020065607 75 132 0.0 0.0 0.00 0.00 0.00 93 1013.6
20201020065118 75 131 0.0 1.0 0.00 0.00 0.00 93 1013.6
20201020064652 75 131 0.0 1.0 0.00 0.00 0.00 93 1013.6
20201020064203 75 176 0.0 0.0 0.00 0.00 0.00 93 1013.6
20201020063608 75 112 0.0 1.0 0.00 0.00 0.00 93 1013.5
20201020063213 75 114 0.0 1.0 0.00 0.00 0.00 93 1013.5
20201020062608 75 114 0.0 0.0 0.00 0.00 0.00 93 1013.6
20201020062059 75 114 0.0 0.0 0.00 0.00 0.00 93 1013.5
20201020061629 75 103 0.0 0.0 0.00 0.00 0.00 93 1013.5
20201020061108 75 103 0.0 0.0 0.00 0.00 0.00 93 1013.5
20201020060559 75 103 0.0 0.0 0.00 0.00 0.00 94 1013.5
20201020060253 75 103 0.0 0.0 0.00 0.00 0.00 93 1013.5
20201020055556 75 103 0.0 0.0 0.00 0.00 0.00 93 1013.5
20201020055108 75 103 0.0 0.0 0.00 0.00 0.00 93 1013.6
20201020054705 75 103 0.0 1.0 0.00 0.00 0.00 93 1013.6
20201020054109 75 92 0.0 1.0 0.00 0.00 0.00 93 1013.6
20201020053555 75 104 0.0 0.0 0.00 0.00 0.00 93 1013.6
20201020053223 75 105 0.0 0.0 0.00 0.00 0.00 93 1013.6
20201020052621 75 105 0.0 1.0 0.00 0.00 0.00 93 1013.7
20201020052103 75 105 0.0 1.0 0.00 0.00 0.00 93 1013.7
20201020051609 75 96 0.0 1.0 0.00 0.00 0.00 94 1013.7
20201020051054 75 135 0.0 2.0 0.00 0.00 0.00 94 1013.7
20201020050609 75 133 0.0 2.0 0.00 0.00 0.00 94 1013.7
20201020050125 75 105 0.0 1.0 0.00 0.00 0.00 94 1013.7
20201020045602 75 106 0.0 1.0 0.00 0.00 0.00 94 1013.6
20201020045054 75 106 0.0 1.0 0.00 0.00 0.00 94 1013.7
20201020044643 75 135 0.0 0.0 0.00 0.00 0.00 94 1013.6
20201020044109 75 135 0.0 1.0 0.00 0.00 0.00 94 1013.6
20201020043610 75 134 0.0 1.0 0.00 0.00 0.00 94 1013.6
20201020043155 75 156 0.0 0.0 0.00 0.00 0.00 94 1013.6
20201020042552 75 156 0.0 0.0 0.00 0.00 0.00 94 1013.6
20201020042123 75 156 0.0 0.0 0.00 0.00 0.00 94 1013.6
20201020041644 75 157 0.0 0.0 0.00 0.00 0.00 94 1013.6
20201020041052 75 157 0.0 0.0 0.00 0.00 0.00 94 1013.6
20201020040605 75 157 0.0 0.0 0.00 0.00 0.00 94 1013.6
20201020040151 75 228 0.0 0.0 0.00 0.00 0.00 94 1013.6
20201020035555 75 234 0.0 0.0 0.00 0.00 0.00 93 1013.5
20201020035053 75 234 0.0 0.0 0.00 0.00 0.00 93 1013.6
20201020034644 75 234 0.0 1.0 0.00 0.00 0.00 93 1013.6
20201020034058 75 233 0.0 0.0 0.00 0.00 0.00 93 1013.5
20201020033554 75 233 0.0 1.0 0.00 0.00 0.00 93 1013.5
20201020033214 75 233 0.0 1.0 0.00 0.00 0.00 93 1013.3
20201020032617 75 115 0.0 0.0 0.00 0.00 0.00 92 1013.3
20201020032051 76 115 0.0 0.0 0.00 0.00 0.00 92 1013.1
20201020031657 76 115 0.0 0.0 0.00 0.00 0.00 92 1013.1
20201020031049 76 115 0.0 1.0 0.00 0.00 0.00 92 1013.1
20201020030549 76 114 0.0 1.0 0.00 0.00 0.00 92 1013.0
20201020030251 76 126 0.0 1.0 0.00 0.00 0.00 91 1013.0
20201020025550 76 164 0.0 0.0 0.00 0.00 0.00 91 1012.8
20201020025056 76 166 0.0 0.0 0.00 0.00 0.00 91 1012.9
20201020024633 76 171 0.0 0.0 0.00 0.00 0.00 91 1012.9
20201020024109 76 170 0.0 0.0 0.00 0.00 0.00 90 1012.9
20201020023611 76 170 0.0 0.0 0.00 0.00 0.00 90 1012.8
20201020023135 77 170 0.0 0.0 0.00 0.00 0.00 89 1012.8
20201020023039 77 170 0.0 0.0 0.00 0.00 0.00 89 1012.8
20201020022557 77 170 0.0 0.0 0.00 0.00 0.00 89 1012.7
20201020022106 77 171 0.0 0.0 0.00 0.00 0.00 89 1012.7
20201020021614 77 108 0.0 1.0 0.00 0.00 0.00 88 1012.7
20201020021047 77 112 0.0 1.0 0.00 0.00 0.00 87 1012.6
20201020020559 77 114 0.0 0.0 0.00 0.00 0.00 87 1012.6
20201020020218 77 114 0.0 0.0 0.00 0.00 0.00 87 1012.7
20201020015559 78 114 0.0 0.0 0.00 0.00 0.00 86 1012.7
20201020015108 78 114 0.0 0.0 0.00 0.00 0.00 86 1012.7
20201020014648 78 116 0.0 0.0 0.00 0.00 0.00 86 1012.7
20201020014046 78 116 0.0 0.0 0.00 0.00 0.00 85 1012.7
20201020013548 78 116 0.0 0.0 0.00 0.00 0.00 85 1012.7
20201020013155 79 116 0.0 0.0 0.00 0.00 0.00 84 1012.7
20201020012545 79 116 0.0 0.0 0.00 0.00 0.00 84 1012.6
20201020012045 79 116 0.0 0.0 0.00 0.00 0.00 84 1012.6
20201020011611 79 116 0.0 1.0 0.00 0.00 0.00 83 1012.6
20201020011048 79 251 0.0 1.0 0.00 0.00 0.00 83 1012.5
20201020010553 79 257 0.0 1.0 0.00 0.00 0.00 83 1012.5
20201020010247 80 154 0.0 0.0 0.00 0.00 0.00 83 1012.5
20201020005545 80 153 0.0 0.0 0.00 0.00 0.00 82 1012.5
20201020005117 80 105 0.0 0.0 0.00 0.00 0.00 82 1012.5
20201020004605 80 105 0.0 0.0 0.00 0.00 0.00 81 1012.4
20201020004053 80 105 0.0 0.0 0.00 0.00 0.00 81 1012.3
20201020003545 81 106 0.0 0.0 0.00 0.00 0.00 80 1012.2
20201020003202 81 105 0.0 1.0 0.00 0.00 0.00 79 1012.2
20201020002609 81 105 0.0 1.0 0.00 0.00 0.00 79 1012.1
20201020002057 81 105 0.0 0.0 0.00 0.00 0.00 78 1012.1
20201020001723 81 106 0.0 0.0 0.00 0.00 0.00 78 1011.9
20201020001044 82 105 0.0 0.0 0.00 0.00 0.00 77 1012.0
20201020000601 82 105 0.0 0.0 0.00 0.00 0.00 77 1012.0
20201020000129 82 105 0.0 0.0 0.00 0.00 0.00 76 1011.9
20201019235613 82 100 0.0 0.0 0.00 0.00 0.00 76 1011.9
20201019235142 83 91 0.0 0.0 0.00 0.00 0.00 76 1011.9
20201019234612 83 91 0.0 0.0 0.00 0.00 0.00 76 1011.9
20201019234047 83 92 0.0 0.0 0.00 0.00 0.00 75 1011.8
20201019233549 83 91 0.0 0.0 0.00 0.00 0.00 74 1011.8
20201019233130 84 91 0.0 0.0 0.00 0.00 0.00 73 1011.8
20201019232547 84 301 0.0 0.0 0.00 0.00 0.00 73 1011.8
20201019232042 84 301 0.0 0.0 0.00 0.00 0.00 72 1011.7
20201019231732 85 301 0.0 0.0 0.00 0.00 0.00 72 1011.6
20201019231040 85 112 0.0 0.0 0.00 0.00 0.00 71 1011.5
20201019230558 86 112 0.0 0.0 0.00 0.00 0.00 70 1011.5
20201019230146 86 114 0.0 1.0 0.00 0.00 0.00 68 1011.4
20201019225541 87 109 0.0 1.0 0.00 0.00 0.00 67 1011.4
20201019225044 88 108 0.0 1.0 0.00 0.00 0.00 67 1011.4
20201019224621 88 108 0.0 1.0 0.00 0.00 0.00 67 1011.3
20201019224040 88 282 0.0 0.0 0.00 0.00 0.00 66 1011.1
20201019223544 88 282 0.0 1.0 0.00 0.00 0.00 66 1011.2
20201019223145 88 282 0.0 1.0 0.00 0.00 0.00 66 1011.2
20201019222554 89 103 0.0 1.0 0.00 0.00 0.00 64 1011.2
20201019222040 89 95 0.0 0.0 0.00 0.00 0.00 62 1011.1
20201019221601 89 82 0.0 0.0 0.00 0.00 0.00 62 1011.1
20201019221108 89 82 0.0 4.0 0.00 0.00 0.00 62 1011.1
20201019220540 89 103 0.0 4.0 0.00 0.00 0.00 62 1011.1
20201019220142 89 165 0.0 0.0 0.00 0.00 0.00 61 1011.1
20201019215543 89 165 0.0 0.0 0.00 0.00 0.00 60 1011.2
20201019215040 90 165 0.0 0.0 0.00 0.00 0.00 59 1011.3
20201019214634 90 164 0.0 1.0 0.00 0.00 0.00 59 1011.3
20201019214109 90 237 0.0 1.0 0.00 0.00 0.00 58 1011.3
20201019213542 90 237 0.0 1.0 0.00 0.00 0.00 58 1011.4
20201019213051 90 157 0.0 0.0 0.00 0.00 0.00 58 1011.3
20201019212535 90 122 0.0 1.0 0.00 0.00 0.00 59 1011.2
20201019212040 90 122 0.0 1.0 0.00 0.00 0.00 58 1011.2
20201019211611 91 124 0.0 1.0 0.00 0.00 0.00 57 1011.3
20201019211113 91 124 0.0 1.0 0.00 0.00 0.00 56 1011.3
20201019210540 92 241 0.0 4.0 0.00 0.00 0.00 57 1011.4
20201019210051 91 214 0.0 4.0 0.00 0.00 0.00 57 1011.3
20201019205536 91 129 0.0 4.0 0.00 0.00 0.00 58 1011.4
20201019205034 91 128 0.0 4.0 0.00 0.00 0.00 57 1011.4
20201019204622 91 18 0.0 1.0 0.00 0.00 0.00 57 1011.4
20201019204041 92 260 0.0 2.0 0.00 0.00 0.00 56 1011.5
20201019203532 91 244 0.0 2.0 0.00 0.00 0.00 57 1011.4
20201019203109 91 117 0.0 2.0 0.00 0.00 0.00 58 1011.6
20201019202535 91 16 0.0 1.0 0.00 0.00 0.00 57 1011.6
20201019202032 91 16 0.0 1.0 0.00 0.00 0.00 56 1011.7
20201019201629 91 289 0.0 1.0 0.00 0.00 0.00 58 1011.7
20201019201030 91 291 0.0 1.0 0.00 0.00 0.00 58 1011.8
20201019200538 91 167 0.0 0.0 0.00 0.00 0.00 57 1011.9
20201019200123 92 165 0.0 4.0 0.00 0.00 0.00 56 1011.9
20201019195528 92 166 0.0 4.0 0.00 0.00 0.00 55 1012.0
20201019195026 93 219 0.0 2.0 0.00 0.00 0.00 56 1012.1
20201019194540 93 181 0.0 1.0 0.00 0.00 0.00 57 1012.1
20201019194033 93 239 0.0 1.0 0.00 0.00 0.00 57 1012.2
20201019193527 93 229 0.0 2.0 0.00 0.00 0.00 60 1012.4
20201019193054 93 233 0.0 2.0 0.00 0.00 0.00 57 1012.5
20201019192524 93 214 0.0 2.0 0.00 0.00 0.00 57 1012.5
20201019192029 93 214 0.0 2.0 0.00 0.00 0.00 57 1012.6
20201019191555 93 276 0.0 1.0 0.00 0.00 0.00 57 1012.6
20201019191021 93 280 0.0 4.0 0.00 0.00 0.00 57 1012.7
20201019190523 93 120 0.0 4.0 0.00 0.00 0.00 58 1012.9
20201019190034 94 221 0.0 2.0 0.00 0.00 0.00 57 1012.9
20201019185532 94 251 0.0 2.0 0.00 0.00 0.00 56 1013.0
20201019185022 95 202 0.0 1.0 0.00 0.00 0.00 55 1013.0
20201019184535 96 251 0.0 1.0 0.00 0.00 0.00 54 1013.1
20201019184028 96 251 0.0 5.0 0.00 0.00 0.00 53 1013.2
20201019183518 97 166 0.0 5.0 0.00 0.00 0.00 53 1013.2
20201019183047 97 172 0.0 5.0 0.00 0.00 0.00 53 1013.3
20201019182516 97 210 0.0 5.0 0.00 0.00 0.00 52 1013.4
20201019182018 97 206 0.0 1.0 0.00 0.00 0.00 53 1013.5
20201019181614 97 249 0.0 4.0 0.00 0.00 0.00 53 1013.6
20201019181018 98 250 0.0 4.0 0.00 0.00 0.00 51 1013.7
20201019180517 98 141 0.0 1.0 0.00 0.00 0.00 52 1013.8
20201019180115 99 141 0.0 0.0 0.00 0.00 0.00 51 1013.9
20201019175522 98 176 0.0 0.0 0.00 0.00 0.00 52 1014.0